When you browse on this site, cookies collect data to enhance your experience and personalize the content and advertising you see.
Visit our Privacy Policy to learn more. By continuing to use the site, you agree to this use of cookies and data.
  • In Romania
  • List of Countries
  • For 7 days
  • Water Temperature
  • Satellite Maps
  • Weather Map
  • Weather Widgets
  • user-avatar
    Login

    Hourly Weather Gopichettipalaiyam

    Today, 16 February, Saturday

    Time Temperature Precipitation Wind Pressure Humidity
    00:00 +28°C° 0.4 mm 2 mps 742 mmHg 73%
    01:00 +28°C° 0.4 mm 2 mps 741 mmHg 76%
    02:00 +27°C° 0.4 mm 2 mps 741 mmHg 79%
    03:00 +27°C° 0 mm 1 mps 741 mmHg 81%
    04:00 +26°C° 0 mm 1 mps 741 mmHg 83%
    05:00 +26°C° 0 mm 1 mps 741 mmHg 85%
    06:00 +27°C° 0 mm 1 mps 741 mmHg 81%
    07:00 +27°C° 0 mm 1 mps 742 mmHg 77%
    08:00 +28°C° 0 mm 1 mps 742 mmHg 73%
    09:00 +30°C° 0 mm 1 mps 742 mmHg 66%
    10:00 +31°C° 0 mm 1 mps 742 mmHg 58%
    11:00 +33°C° 0 mm 1 mps 742 mmHg 51%
    12:00 +34°C° 0 mm 1 mps 741 mmHg 47%
    13:00 +35°C° 0 mm 1 mps 740 mmHg 44%
    14:00 +36°C° 0 mm 1 mps 739 mmHg 40%
    15:00 +36°C° 0 mm 1 mps 739 mmHg 41%
    16:00 +35°C° 0 mm 1 mps 739 mmHg 41%
    17:00 +35°C° 0 mm 1 mps 739 mmHg 42%
    18:00 +34°C° 0 mm 1 mps 740 mmHg 44%
    19:00 +33°C° 0 mm 1 mps 741 mmHg 47%
    20:00 +32°C° 0 mm 1 mps 741 mmHg 49%
    21:00 +32°C° 0 mm 1 mps 742 mmHg 53%
    22:00 +31°C° 0 mm 2 mps 742 mmHg 57%
    23:00 +30°C° 0 mm 2 mps 742 mmHg 60%

    Tomorrow, 17 February, Sunday

    Time Temperature Precipitation Wind Pressure Humidity
    00:00 +30°C° 0.2 mm 2 mps 742 mmHg 64%
    01:00 +29°C° 0.2 mm 1 mps 741 mmHg 69%
    02:00 +28°C° 0.2 mm 1 mps 741 mmHg 73%
    03:00 +28°C° 0.1 mm 1 mps 741 mmHg 75%
    04:00 +27°C° 0.1 mm 1 mps 741 mmHg 78%
    05:00 +27°C° 0.1 mm 1 mps 741 mmHg 80%
    06:00 +28°C° 0.1 mm 1 mps 741 mmHg 77%
    07:00 +28°C° 0.1 mm 1 mps 742 mmHg 74%
    08:00 +27°C° 0.1 mm 0 mps 742 mmHg 71%
    09:00 +31°C° 0.1 mm 1 mps 742 mmHg 64%
    10:00 +33°C° 0.1 mm 1 mps 742 mmHg 56%
    11:00 +35°C° 0.1 mm 1 mps 742 mmHg 49%
    12:00 +35°C° 0.1 mm 1 mps 741 mmHg 46%
    13:00 +36°C° 0.1 mm 1 mps 740 mmHg 44%
    14:00 +36°C° 0.1 mm 1 mps 739 mmHg 41%
    15:00 +36°C° 0 mm 1 mps 738 mmHg 42%
    16:00 +36°C° 0 mm 1 mps 738 mmHg 43%
    17:00 +35°C° 0 mm 1 mps 738 mmHg 44%
    18:00 +34°C° 0 mm 1 mps 739 mmHg 47%
    19:00 +33°C° 0 mm 1 mps 739 mmHg 51%
    20:00 +32°C° 0 mm 1 mps 740 mmHg 55%
    21:00 +31°C° 0 mm 1 mps 740 mmHg 55%
    22:00 +30°C° 0 mm 2 mps 740 mmHg 56%
    23:00 +29°C° 0 mm 3 mps 740 mmHg 56%

    Day after tomorrow, 18 February, Monday

    Time Temperature Precipitation Wind Pressure Humidity
    00:00 +29°C° 0 mm 2 mps 740 mmHg 58%
    01:00 +28°C° 0 mm 2 mps 739 mmHg 60%
    02:00 +28°C° 0 mm 1 mps 739 mmHg 62%
    03:00 +27°C° 0 mm 1 mps 739 mmHg 64%
    04:00 +27°C° 0 mm 1 mps 739 mmHg 66%
    05:00 +26°C° 0 mm 1 mps 739 mmHg 68%
    06:00 +27°C° 0 mm 1 mps 740 mmHg 65%
    07:00 +28°C° 0 mm 1 mps 740 mmHg 62%
    08:00 +29°C° 0 mm 1 mps 741 mmHg 58%
    09:00 +31°C° 0 mm 1 mps 741 mmHg 51%
    10:00 +33°C° 0 mm 1 mps 741 mmHg 44%
    11:00 +35°C° 0 mm 1 mps 741 mmHg 37%
    12:00 +36°C° 0 mm 1 mps 740 mmHg 35%
    13:00 +38°C° 0 mm 2 mps 739 mmHg 33%
    14:00 +38°C° 0 mm 2 mps 738 mmHg 31%
    15:00 +38°C° 0 mm 2 mps 737 mmHg 32%
    16:00 +37°C° 0 mm 2 mps 737 mmHg 33%
    17:00 +37°C° 0 mm 2 mps 737 mmHg 33%
    18:00 +35°C° 0 mm 1 mps 738 mmHg 36%
    19:00 +33°C° 0 mm 1 mps 738 mmHg 39%
    20:00 +32°C° 0 mm 1 mps 739 mmHg 43%
    21:00 +31°C° 0 mm 1 mps 739 mmHg 45%
    22:00 +31°C° 0 mm 1 mps 739 mmHg 48%
    23:00 +30°C° 0 mm 2 mps 740 mmHg 50%

    19 February, Tuesday

    Time Temperature Precipitation Wind Pressure Humidity
    00:00 +29°C° 0 mm 1 mps 739 mmHg 53%
    01:00 +29°C° 0 mm 1 mps 739 mmHg 56%
    02:00 +28°C° 0 mm 1 mps 738 mmHg 59%
    03:00 +28°C° 0 mm 1 mps 738 mmHg 62%
    04:00 +28°C° 0 mm 1 mps 738 mmHg 64%
    05:00 +27°C° 0 mm 1 mps 739 mmHg 67%
    06:00 +28°C° 0 mm 1 mps 739 mmHg 67%
    07:00 +29°C° 0 mm 1 mps 740 mmHg 67%
    08:00 +29°C° 0 mm 2 mps 741 mmHg 67%
    09:00 +31°C° 0 mm 2 mps 741 mmHg 61%
    10:00 +32°C° 0 mm 2 mps 741 mmHg 55%
    11:00 +35°C° 0 mm 3 mps 741 mmHg 49%
    12:00 +36°C° 0 mm 3 mps 740 mmHg 46%
    13:00 +36°C° 0 mm 3 mps 739 mmHg 44%
    14:00 +37°C° 0 mm 3 mps 738 mmHg 41%
    15:00 +36°C° 0 mm 3 mps 738 mmHg 42%
    16:00 +36°C° 0 mm 3 mps 738 mmHg 43%
    17:00 +36°C° 0 mm 3 mps 738 mmHg 44%
    18:00 +34°C° 0 mm 2 mps 739 mmHg 47%
    19:00 +32°C° 0 mm 2 mps 740 mmHg 50%
    20:00 +31°C° 0 mm 1 mps 741 mmHg 53%
    21:00 +30°C° 0 mm 2 mps 741 mmHg 57%
    22:00 +30°C° 0 mm 2 mps 741 mmHg 60%
    23:00 +29°C° 0 mm 2 mps 742 mmHg 63%

    20 February, Wednesday

    Time Temperature Precipitation Wind Pressure Humidity
    00:00 +28°C° 0 mm 2 mps 741 mmHg 66%
    01:00 +28°C° 0 mm 2 mps 741 mmHg 70%
    02:00 +27°C° 0 mm 1 mps 740 mmHg 73%
    03:00 +26°C° 0 mm 1 mps 741 mmHg 76%
    04:00 +26°C° 0 mm 1 mps 741 mmHg 79%
    05:00 +25°C° 0 mm 1 mps 741 mmHg 83%
    06:00 +26°C° 0 mm 1 mps 742 mmHg 80%
    07:00 +27°C° 0 mm 1 mps 742 mmHg 77%
    08:00 +27°C° 0 mm 1 mps 743 mmHg 74%
    09:00 +29°C° 0 mm 1 mps 743 mmHg 65%
    10:00 +31°C° 0 mm 2 mps 742 mmHg 55%
    11:00 +32°C° 0 mm 2 mps 742 mmHg 46%
    12:00 +34°C° 0 mm 3 mps 741 mmHg 41%
    13:00 +36°C° 0 mm 3 mps 740 mmHg 37%
    14:00 +37°C° 0 mm 3 mps 740 mmHg 32%
    15:00 +36°C° 0 mm 4 mps 740 mmHg 32%
    16:00 +36°C° 0 mm 4 mps 740 mmHg 31%
    17:00 +36°C° 0 mm 4 mps 740 mmHg 31%
    18:00 +34°C° 0 mm 3 mps 741 mmHg 35%
    19:00 +33°C° 0 mm 3 mps 742 mmHg 38%
    20:00 +30°C° 0 mm 2 mps 742 mmHg 42%
    21:00 +29°C° 0 mm 2 mps 743 mmHg 46%
    22:00 +28°C° 0 mm 1 mps 743 mmHg 50%
    23:00 +27°C° 0 mm 1 mps 743 mmHg 54%

    21 February, Thursday

    Time Temperature Precipitation Wind Pressure Humidity
    00:00 +27°C° 0 mm 1 mps 742 mmHg 58%
    01:00 +24°C° 0 mm 0 mps 742 mmHg 62%
    02:00 +23°C° 0 mm 0 mps 741 mmHg 65%
    03:00 +23°C° 0 mm 0 mps 741 mmHg 68%
    04:00 +22°C° 0 mm 0 mps 742 mmHg 71%
    05:00 +22°C° 0 mm 0 mps 742 mmHg 74%
    06:00 +23°C° 0 mm 0 mps 742 mmHg 71%
    07:00 +24°C° 0 mm 0 mps 743 mmHg 69%
    08:00 +25°C° 0 mm 0 mps 744 mmHg 66%
    09:00 +29°C° 0 mm 1 mps 743 mmHg 57%
    10:00 +31°C° 0 mm 1 mps 743 mmHg 47%
    11:00 +32°C° 0 mm 2 mps 743 mmHg 38%
    12:00 +35°C° 0 mm 2 mps 742 mmHg 34%
    13:00 +36°C° 0 mm 3 mps 741 mmHg 31%
    14:00 +37°C° 0 mm 3 mps 740 mmHg 27%
    15:00 +37°C° 0 mm 3 mps 740 mmHg 27%
    16:00 +36°C° 0 mm 3 mps 740 mmHg 27%
    17:00 +36°C° 0 mm 3 mps 740 mmHg 27%
    18:00 +34°C° 0 mm 3 mps 741 mmHg 32%
    19:00 +32°C° 0 mm 2 mps 742 mmHg 37%
    20:00 +30°C° 0 mm 1 mps 742 mmHg 41%
    21:00 +29°C° 0 mm 1 mps 742 mmHg 44%
    22:00 +28°C° 0 mm 1 mps 743 mmHg 46%
    23:00 +27°C° 0 mm 1 mps 743 mmHg 48%
    Show more